Lid_Strength_Index
10 10 11 10 9 9 10 12 13 12 9 11 11 11 10 8 7 8 7 6 6 5 3 2 2 2 2 3 3 3 4 4 4 4 5 4 4 4 3 3 2 2 2 2
11 11 8 8 8 10 10 13 14 11 9 11 11 12 9 8 8 7 7 7 6 5 4 3 3 2 3 3 3 3 3 4 4 4 4 4 4 4 4 4 3 2 2 2
11 10 7 8 10 10 11 12 13 13 11 10 11 14 12 9 7 7 7 6 6 5 5 4 3 3 2 3 3 3 3 3 3 3 3 3 3 3 4 3 3 2 2 2
10 8 8 10 10 10 13 9 11 12 13 17 12 18 14 11 10 8 7 7 6 5 5 4 4 3 3 3 3 3 3 3 3 3 3 4 4 5 4 4 3 3 2 2
11 10 10 10 10 8 11 9 10 11 14 14 14 17 14 12 12 10 8 7 6 5 5 4 4 3 3 2 4 3 3 3 3 3 3 4 4 4 3 3 4 3 3 2
9 7 8 9 8 8 8 10 12 12 14 18 15 16 16 14 12 10 8 7 6 5 4 4 3 3 3 4 4 3 3 3 4 3 3 3 4 3 3 3 4 3 3 2
10 10 8 8 10 9 10 14 17 18 19 20 14 15 14 10 9 9 8 7 6 5 5 4 5 5 5 5 4 3 4 4 4 3 3 3 3 3 3 3 3 4 3 2
13 14 10 8 10 12 12 14 16 19 21 19 13 18 14 9 8 7 7 7 6 6 5 5 4 5 6 5 4 4 3 4 4 4 4 2 2 2 3 3 3 3 3 2
13 13 8 8 8 9 12 14 12 16 16 18 17 14 10 8 9 8 8 7 6 6 6 5 5 5 6 4 4 4 3 4 4 4 4 2 2 2 2 2 3 3 2 2
11 15 9 8 8 9 10 9 15 15 21 22 18 17 16 11 10 9 8 8 7 6 5 5 5 5 5 4 4 4 4 4 4 3 3 2 2 2 2 2 3 2 2 2
10 12 12 9 11 12 11 13 13 14 15 20 20 17 11 10 9 9 8 7 6 6 5 5 5 5 5 5 5 4 4 4 4 4 3 2 2 2 2 2 2 2 1 2
10 12 14 13 9 8 10 13 12 16 18 16 16 17 9 10 9 8 8 6 7 6 5 5 4 4 5 6 5 5 4 4 3 4 3 2 2 2 2 2 1 1 2 1
9 13 16 15 12 10 12 11 12 13 14 17 18 16 8 8 8 7 7 6 6 5 5 5 6 6 5 5 5 5 4 3 3 4 3 2 2 1 2 2 2 1 1 1
7 13 14 17 14 12 13 12 11 13 15 16 15 15 11 10 9 8 7 6 6 5 5 4 4 4 5 4 5 5 4 4 4 3 3 2 2 1 1 2 1 1 0 1
9 13 13 13 11 11 12 12 12 13 13 15 14 14 12 10 9 8 6 6 6 5 5 4 4 4 3 4 4 3 4 4 4 4 3 2 1 1 1 1 1 1 1 1
10 13 13 13 11 11 13 12 12 12 12 12 12 13 8 7 7 7 7 6 6 6 5 4 4 4 3 3 3 3 2 3 4 4 3 2 1 1 1 1 1 2 2 1
11 12 14 16 12 12 15 13 12 12 11 11 14 11 8 9 8 8 7 6 6 5 5 4 4 3 3 3 2 3 3 2 4 4 3 2 1 1 1 1 1 2 2 2
11 12 13 16 14 19 13 8 9 11 9 9 9 8 8 8 7 6 5 6 5 5 4 4 3 3 3 2 2 2 1 2 3 3 3 3 2 1 1 1 1 2 2 2
9 11 15 16 17 14 12 10 10 11 11 8 8 8 7 6 8 8 5 4 4 4 4 4 3 3 3 3 2 2 2 2 2 2 3 2 2 2 1 2 1 1 2 3
9 10 13 15 18 19 12 8 6 7 14 8 7 8 8 8 12 10 6 4 4 4 4 4 3 3 3 3 1 2 2 2 2 2 2 2 2 2 1 2 2 1 1 2
13 13 15 16 17 14 9 7 7 15 13 7 7 7 7 9 8 6 5 5 5 4 4 3 4 4 4 3 2 2 2 3 1 1 1 1 2 2 1 2 2 2 1 1
14 15 16 14 17 17 8 9 11 9 8 7 7 7 6 6 6 6 6 6 5 5 4 4 4 4 4 3 3 2 3 1 1 1 1 1 2 2 1 1 1 2 2 2
14 11 13 12 13 9 8 8 7 7 9 8 8 7 6 6 6 6 6 6 5 5 5 5 5 4 4 3 3 3 2 1 1 1 2 1 1 2 2 2 2 3 2 2
10 10 12 11 9 8 8 7 7 7 8 7 6 6 6 7 6 6 6 6 6 6 5 5 5 5 5 4 3 3 2 1 1 2 2 1 1 2 2 2 2 2 2 3
10 9 10 11 9 7 7 7 7 7 7 6 5 5 5 5 6 6 6 6 6 6 5 5 5 5 4 4 3 3 3 3 2 2 2 2 1 2 2 3 3 3 2 2
9 10 11 11 8 8 8 7 6 7 6 5 5 5 5 5 6 6 6 6 6 6 6 5 5 5 5 5 5 5 4 4 3 3 3 2 2 2 2 3 3 5 6 6